QPF
0.00 0.00 0.00 0.00 0.00 0.00 0.00 0.00 0.00 0.00 0.00 0.00 0.00 0.00 0.00 0.00 0.00 0.00 0.00 0.00 0.01 0.01 0.02 0.02 0.03 0.04 0.05 0.06 0.06 0.07 0.07 0.07 0.07 0.09 0.10 0.10 0.10 0.08
0.00 0.00 0.00 0.00 0.00 0.00 0.00 0.00 0.00 0.00 0.00 0.00 0.00 0.00 0.00 0.00 0.00 0.00 0.00 0.00 0.00 0.00 0.01 0.01 0.01 0.02 0.04 0.05 0.06 0.06 0.06 0.06 0.06 0.06 0.06 0.05 0.06 0.06
0.00 0.00 0.00 0.00 0.00 0.00 0.00 0.00 0.00 0.00 0.00 0.00 0.00 0.00 0.00 0.00 0.00 0.00 0.00 0.00 0.00 0.00 0.00 0.01 0.01 0.01 0.02 0.03 0.05 0.06 0.07 0.07 0.07 0.07 0.06 0.06 0.05 0.05
0.00 0.00 0.00 0.00 0.00 0.00 0.00 0.00 0.00 0.00 0.00 0.00 0.00 0.00 0.00 0.00 0.00 0.00 0.00 0.00 0.00 0.00 0.00 0.00 0.01 0.02 0.02 0.02 0.03 0.04 0.06 0.08 0.08 0.08 0.07 0.07 0.06 0.06
0.00 0.00 0.00 0.00 0.00 0.00 0.00 0.00 0.00 0.00 0.00 0.00 0.00 0.00 0.00 0.00 0.00 0.00 0.00 0.00 0.00 0.00 0.00 0.00 0.00 0.01 0.01 0.02 0.02 0.03 0.03 0.05 0.07 0.08 0.08 0.08 0.08 0.07
0.00 0.00 0.00 0.00 0.00 0.00 0.00 0.00 0.00 0.00 0.00 0.00 0.00 0.00 0.00 0.00 0.00 0.00 0.00 0.00 0.00 0.00 0.00 0.00 0.00 0.00 0.00 0.01 0.02 0.03 0.03 0.04 0.04 0.05 0.06 0.07 0.07 0.07
0.00 0.00 0.00 0.00 0.00 0.00 0.00 0.00 0.00 0.00 0.00 0.00 0.00 0.00 0.00 0.00 0.00 0.00 0.00 0.00 0.00 0.00 0.00 0.00 0.00 0.00 0.00 0.00 0.01 0.02 0.02 0.03 0.03 0.04 0.04 0.04 0.05 0.06
0.00 0.00 0.00 0.00 0.00 0.00 0.00 0.00 0.00 0.00 0.00 0.00 0.00 0.00 0.00 0.00 0.00 0.00 0.00 0.00 0.00 0.00 0.00 0.00 0.00 0.00 0.00 0.00 0.01 0.01 0.01 0.02 0.02 0.02 0.03 0.03 0.03 0.03
0.00 0.00 0.00 0.00 0.00 0.00 0.00 0.00 0.00 0.00 0.00 0.00 0.00 0.00 0.00 0.00 0.00 0.00 0.00 0.00 0.00 0.00 0.00 0.00 0.00 0.00 0.00 0.00 0.00 0.01 0.01 0.01 0.01 0.01 0.01 0.02 0.02 0.03
0.00 0.00 0.00 0.00 0.00 0.00 0.00 0.00 0.00 0.00 0.00 0.00 0.00 0.00 0.00 0.00 0.00 0.00 0.00 0.00 0.00 0.00 0.00 0.00 0.00 0.00 0.00 0.00 0.00 0.01 0.01 0.01 0.01 0.01 0.01 0.01 0.02 0.02
0.00 0.00 0.00 0.00 0.00 0.00 0.00 0.00 0.00 0.00 0.00 0.00 0.00 0.00 0.00 0.00 0.00 0.00 0.00 0.00 0.00 0.00 0.00 0.00 0.00 0.00 0.00 0.00 0.00 0.00 0.01 0.01 0.01 0.01 0.02 0.02 0.02 0.02
0.00 0.00 0.00 0.00 0.00 0.00 0.00 0.00 0.00 0.00 0.00 0.00 0.00 0.00 0.00 0.00 0.00 0.00 0.00 0.00 0.00 0.00 0.00 0.00 0.00 0.00 0.00 0.00 0.00 0.00 0.01 0.01 0.02 0.02 0.02 0.02 0.03 0.02
0.00 0.00 0.00 0.00 0.00 0.00 0.00 0.00 0.00 0.00 0.00 0.00 0.00 0.00 0.00 0.00 0.00 0.00 0.00 0.00 0.00 0.00 0.00 0.00 0.00 0.00 0.00 0.00 0.00 0.00 0.00 0.01 0.02 0.02 0.03 0.03 0.03 0.03
0.01 0.00 0.00 0.00 0.00 0.00 0.00 0.00 0.00 0.00 0.00 0.00 0.00 0.00 0.00 0.00 0.00 0.00 0.00 0.00 0.00 0.00 0.00 0.00 0.00 0.00 0.00 0.00 0.00 0.00 0.00 0.01 0.01 0.02 0.03 0.04 0.04 0.05
0.01 0.01 0.01 0.01 0.01 0.00 0.00 0.00 0.00 0.00 0.00 0.00 0.00 0.00 0.00 0.00 0.00 0.00 0.00 0.00 0.00 0.00 0.00 0.00 0.00 0.00 0.00 0.00 0.00 0.00 0.01 0.01 0.01 0.02 0.03 0.03 0.04 0.05
0.01 0.01 0.01 0.01 0.01 0.01 0.01 0.01 0.00 0.00 0.00 0.00 0.00 0.00 0.00 0.00 0.00 0.00 0.00 0.00 0.00 0.00 0.00 0.00 0.00 0.00 0.00 0.00 0.00 0.00 0.01 0.02 0.03 0.04 0.04 0.05 0.05 0.06
0.02 0.02 0.02 0.01 0.01 0.01 0.01 0.01 0.01 0.01 0.00 0.00 0.00 0.00 0.00 0.00 0.00 0.00 0.00 0.00 0.00 0.00 0.00 0.00 0.00 0.00 0.00 0.00 0.00 0.00 0.00 0.01 0.02 0.04 0.05 0.05 0.06 0.06
0.04 0.02 0.02 0.02 0.02 0.02 0.02 0.02 0.01 0.01 0.00 0.00 0.00 0.00 0.00 0.00 0.00 0.00 0.00 0.00 0.00 0.00 0.00 0.00 0.00 0.00 0.00 0.00 0.00 0.00 0.00 0.00 0.01 0.03 0.05 0.06 0.06 0.07
0.04 0.03 0.03 0.03 0.03 0.02 0.02 0.02 0.01 0.01 0.01 0.00 0.00 0.00 0.00 0.00 0.00 0.00 0.00 0.00 0.00 0.00 0.00 0.00 0.00 0.00 0.00 0.00 0.00 0.00 0.00 0.01 0.02 0.03 0.05 0.06 0.07 0.07
0.03 0.04 0.04 0.04 0.03 0.03 0.02 0.02 0.01 0.01 0.01 0.00 0.00 0.00 0.00 0.00 0.00 0.00 0.00 0.00 0.00 0.00 0.00 0.01 0.01 0.01 0.00 0.00 0.00 0.00 0.01 0.02 0.03 0.04 0.05 0.06 0.08 0.11
0.05 0.05 0.05 0.04 0.04 0.03 0.03 0.03 0.02 0.02 0.01 0.01 0.01 0.01 0.01 0.01 0.01 0.01 0.01 0.01 0.00 0.01 0.01 0.01 0.02 0.02 0.01 0.01 0.01 0.00 0.01 0.02 0.03 0.04 0.07 0.09 0.11 0.12
0.11 0.11 0.09 0.08 0.06 0.04 0.04 0.04 0.03 0.03 0.03 0.02 0.02 0.02 0.02 0.02 0.02 0.02 0.02 0.01 0.01 0.01 0.01 0.01 0.01 0.02 0.02 0.02 0.01 0.01 0.01 0.01 0.02 0.05 0.08 0.13 0.13 0.12
0.08 0.08 0.08 0.07 0.07 0.06 0.05 0.04 0.04 0.04 0.03 0.03 0.03 0.02 0.02 0.02 0.02 0.02 0.02 0.02 0.02 0.01 0.01 0.01 0.01 0.01 0.01 0.02 0.02 0.02 0.02 0.02 0.02 0.03 0.05 0.10 0.13 0.14
MSLP
1019.78 1019.89 1020.03 1020.18 1020.32 1020.42 1020.46 1020.44 1020.36 1020.21 1020.02 1019.77 1019.49 1019.18 1018.86 1018.52 1018.19 1017.88 1017.60 1017.38 1017.23 1017.14 1017.13 1017.17 1017.25 1017.35 1017.46 1017.56 1017.65 1017.74 1017.85 1018.00 1018.20 1018.46 1018.78 1019.16 1019.57 1019.99
1019.37 1019.48 1019.60 1019.74 1019.87 1019.97 1020.04 1020.07 1020.04 1019.97 1019.85 1019.68 1019.47 1019.22 1018.93 1018.60 1018.27 1017.93 1017.62 1017.35 1017.14 1017.00 1016.92 1016.91 1016.94 1017.00 1017.07 1017.13 1017.19 1017.25 1017.32 1017.43 1017.58 1017.80 1018.07 1018.40 1018.76 1019.15
1018.88 1018.97 1019.08 1019.20 1019.32 1019.42 1019.51 1019.57 1019.60 1019.59 1019.54 1019.45 1019.31 1019.12 1018.88 1018.59 1018.27 1017.93 1017.60 1017.30 1017.05 1016.86 1016.74 1016.69 1016.67 1016.69 1016.73 1016.76 1016.80 1016.84 1016.89 1016.97 1017.09 1017.27 1017.50 1017.78 1018.10 1018.45
1018.36 1018.44 1018.53 1018.64 1018.74 1018.84 1018.94 1019.02 1019.08 1019.12 1019.13 1019.11 1019.03 1018.91 1018.72 1018.48 1018.19 1017.87 1017.54 1017.23 1016.96 1016.73 1016.57 1016.47 1016.42 1016.40 1016.41 1016.42 1016.44 1016.46 1016.50 1016.57 1016.67 1016.82 1017.03 1017.28 1017.57 1017.88
1017.84 1017.92 1018.00 1018.09 1018.18 1018.28 1018.37 1018.45 1018.53 1018.60 1018.65 1018.67 1018.66 1018.58 1018.45 1018.26 1018.02 1017.73 1017.42 1017.12 1016.83 1016.59 1016.40 1016.27 1016.17 1016.12 1016.09 1016.08 1016.07 1016.08 1016.11 1016.17 1016.27 1016.41 1016.60 1016.84 1017.11 1017.40
1017.34 1017.41 1017.50 1017.58 1017.67 1017.75 1017.83 1017.91 1017.98 1018.06 1018.13 1018.17 1018.19 1018.16 1018.08 1017.94 1017.74 1017.50 1017.23 1016.95 1016.68 1016.43 1016.22 1016.05 1015.92 1015.83 1015.75 1015.70 1015.67 1015.66 1015.68 1015.73 1015.83 1015.97 1016.16 1016.40 1016.66 1016.94
1016.83 1016.92 1017.01 1017.09 1017.16 1017.23 1017.30 1017.36 1017.43 1017.49 1017.56 1017.61 1017.64 1017.64 1017.60 1017.51 1017.37 1017.19 1016.97 1016.73 1016.48 1016.25 1016.03 1015.83 1015.66 1015.52 1015.40 1015.30 1015.23 1015.18 1015.18 1015.22 1015.32 1015.47 1015.67 1015.91 1016.18 1016.46
1016.29 1016.39 1016.49 1016.57 1016.64 1016.70 1016.76 1016.80 1016.84 1016.89 1016.94 1016.98 1017.02 1017.04 1017.03 1016.99 1016.91 1016.78 1016.63 1016.44 1016.24 1016.02 1015.81 1015.59 1015.39 1015.20 1015.03 1014.87 1014.75 1014.67 1014.63 1014.66 1014.74 1014.89 1015.09 1015.34 1015.62 1015.90
1015.69 1015.80 1015.90 1015.99 1016.06 1016.12 1016.16 1016.19 1016.21 1016.23 1016.26 1016.29 1016.32 1016.35 1016.37 1016.37 1016.34 1016.29 1016.20 1016.08 1015.92 1015.75 1015.55 1015.34 1015.11 1014.88 1014.65 1014.45 1014.27 1014.13 1014.06 1014.05 1014.12 1014.25 1014.45 1014.70 1014.98 1015.26
1014.99 1015.10 1015.21 1015.31 1015.39 1015.44 1015.48 1015.49 1015.50 1015.51 1015.51 1015.53 1015.56 1015.59 1015.63 1015.66 1015.69 1015.69 1015.67 1015.62 1015.53 1015.41 1015.24 1015.04 1014.81 1014.55 1014.29 1014.03 1013.80 1013.62 1013.50 1013.45 1013.48 1013.59 1013.78 1014.01 1014.27 1014.54
1014.22 1014.32 1014.42 1014.52 1014.60 1014.66 1014.70 1014.72 1014.72 1014.72 1014.71 1014.72 1014.74 1014.77 1014.83 1014.89 1014.95 1015.01 1015.06 1015.07 1015.05 1014.98 1014.86 1014.69 1014.47 1014.21 1013.93 1013.64 1013.37 1013.14 1012.97 1012.88 1012.87 1012.94 1013.09 1013.29 1013.52 1013.76
1013.37 1013.45 1013.54 1013.64 1013.72 1013.79 1013.84 1013.87 1013.88 1013.88 1013.88 1013.88 1013.89 1013.93 1013.99 1014.07 1014.16 1014.26 1014.35 1014.43 1014.47 1014.46 1014.39 1014.26 1014.07 1013.83 1013.54 1013.24 1012.95 1012.69 1012.48 1012.35 1012.29 1012.32 1012.42 1012.57 1012.75 1012.92
1012.48 1012.52 1012.58 1012.67 1012.75 1012.84 1012.91 1012.96 1012.99 1013.01 1013.02 1013.03 1013.04 1013.08 1013.13 1013.22 1013.32 1013.44 1013.57 1013.69 1013.77 1013.82 1013.80 1013.72 1013.58 1013.37 1013.10 1012.81 1012.52 1012.24 1012.01 1011.84 1011.74 1011.72 1011.76 1011.85 1011.96 1012.06
1011.53 1011.52 1011.55 1011.62 1011.71 1011.81 1011.91 1012.00 1012.07 1012.12 1012.15 1012.18 1012.20 1012.23 1012.28 1012.36 1012.46 1012.58 1012.72 1012.86 1012.98 1013.06 1013.09 1013.06 1012.96 1012.79 1012.57 1012.31 1012.02 1011.75 1011.51 1011.31 1011.18 1011.11 1011.09 1011.11 1011.15 1011.18
1010.53 1010.46 1010.45 1010.50 1010.60 1010.72 1010.86 1010.99 1011.11 1011.20 1011.27 1011.33 1011.36 1011.40 1011.44 1011.50 1011.58 1011.69 1011.81 1011.95 1012.08 1012.19 1012.25 1012.27 1012.21 1012.10 1011.92 1011.69 1011.44 1011.18 1010.94 1010.74 1010.58 1010.47 1010.40 1010.36 1010.33 1010.28
1009.44 1009.31 1009.27 1009.30 1009.41 1009.56 1009.74 1009.93 1010.10 1010.25 1010.37 1010.46 1010.52 1010.56 1010.59 1010.63 1010.69 1010.77 1010.87 1010.99 1011.11 1011.22 1011.31 1011.35 1011.34 1011.27 1011.14 1010.96 1010.75 1010.52 1010.30 1010.09 1009.92 1009.78 1009.68 1009.59 1009.50 1009.40
1008.24 1008.07 1008.00 1008.03 1008.14 1008.33 1008.55 1008.80 1009.04 1009.25 1009.43 1009.56 1009.65 1009.70 1009.73 1009.75 1009.78 1009.83 1009.90 1009.99 1010.09 1010.19 1010.29 1010.35 1010.37 1010.34 1010.25 1010.12 1009.95 1009.76 1009.56 1009.37 1009.20 1009.05 1008.92 1008.80 1008.68 1008.54
1006.97 1006.76 1006.67 1006.69 1006.83 1007.05 1007.32 1007.62 1007.92 1008.20 1008.43 1008.61 1008.73 1008.80 1008.83 1008.84 1008.85 1008.87 1008.90 1008.96 1009.04 1009.13 1009.23 1009.30 1009.34 1009.35 1009.30 1009.21 1009.09 1008.93 1008.76 1008.59 1008.44 1008.29 1008.16 1008.03 1007.90 1007.75
1005.67 1005.43 1005.34 1005.37 1005.52 1005.77 1006.08 1006.43 1006.78 1007.10 1007.38 1007.59 1007.74 1007.83 1007.88 1007.88 1007.88 1007.88 1007.89 1007.93 1007.99 1008.07 1008.16 1008.25 1008.31 1008.35 1008.34 1008.29 1008.20 1008.08 1007.95 1007.81 1007.67 1007.54 1007.41 1007.30 1007.18 1007.05
1004.44 1004.20 1004.10 1004.14 1004.30 1004.57 1004.90 1005.27 1005.64 1005.99 1006.29 1006.53 1006.71 1006.81 1006.86 1006.88 1006.87 1006.86 1006.86 1006.89 1006.95 1007.03 1007.13 1007.23 1007.31 1007.37 1007.40 1007.39 1007.34 1007.26 1007.15 1007.04 1006.92 1006.81 1006.71 1006.62 1006.53 1006.43
1003.40 1003.16 1003.07 1003.11 1003.26 1003.52 1003.84 1004.20 1004.57 1004.92 1005.22 1005.46 1005.64 1005.75 1005.80 1005.82 1005.82 1005.81 1005.82 1005.86 1005.92 1006.02 1006.13 1006.25 1006.36 1006.45 1006.51 1006.53 1006.52 1006.47 1006.39 1006.31 1006.22 1006.13 1006.05 1005.99 1005.94 1005.89
1002.65 1002.42 1002.32 1002.34 1002.47 1002.70 1002.98 1003.30 1003.63 1003.93 1004.20 1004.41 1004.57 1004.67 1004.72 1004.74 1004.74 1004.75 1004.77 1004.82 1004.91 1005.02 1005.16 1005.30 1005.45 1005.57 1005.66 1005.72 1005.73 1005.71 1005.67 1005.61 1005.54 1005.48 1005.43 1005.40 1005.39 1005.40
1002.24 1002.01 1001.90 1001.89 1001.98 1002.13 1002.35 1002.59 1002.84 1003.07 1003.27 1003.43 1003.55 1003.61 1003.65 1003.66 1003.67 1003.68 1003.72 1003.79 1003.90 1004.04 1004.21 1004.38 1004.55 1004.71 1004.83 1004.92 1004.97 1004.97 1004.95 1004.91 1004.87 1004.83 1004.81 1004.81 1004.84 1004.90
Thickness
5665 5663 5660 5658 5656 5653 5651 5649 5646 5645 5646 5648 5651 5654 5655 5657 5659 5661 5664 5667 5669 5672 5674 5676 5679 5680 5682 5685 5688 5690 5692 5694 5697 5698 5700 5701 5702 5703
5662 5659 5656 5654 5652 5649 5646 5644 5642 5640 5639 5640 5642 5644 5646 5648 5650 5651 5654 5657 5660 5663 5666 5669 5671 5674 5676 5679 5682 5685 5687 5690 5692 5695 5697 5699 5700 5702
5659 5656 5653 5651 5647 5645 5642 5639 5637 5634 5634 5634 5634 5635 5636 5638 5641 5642 5645 5647 5651 5654 5657 5660 5663 5666 5669 5672 5675 5678 5681 5685 5688 5690 5693 5695 5697 5699
5656 5652 5650 5647 5643 5641 5637 5635 5633 5630 5629 5628 5628 5628 5628 5629 5631 5633 5635 5638 5640 5644 5648 5651 5655 5658 5662 5665 5668 5672 5675 5679 5682 5685 5688 5691 5693 5695
5653 5650 5647 5642 5639 5636 5633 5630 5628 5627 5623 5622 5622 5620 5620 5620 5621 5623 5625 5627 5631 5634 5638 5642 5645 5649 5653 5657 5661 5665 5669 5672 5676 5680 5682 5685 5688 5690
5650 5647 5643 5640 5636 5633 5629 5626 5623 5620 5618 5616 5615 5614 5612 5612 5611 5613 5615 5617 5620 5624 5627 5630 5634 5638 5643 5648 5653 5656 5660 5664 5668 5672 5676 5679 5682 5685
5647 5643 5640 5637 5634 5630 5626 5622 5618 5615 5612 5610 5609 5607 5606 5604 5604 5605 5606 5607 5609 5612 5616 5620 5623 5627 5631 5637 5642 5647 5652 5656 5660 5664 5668 5672 5676 5679
5643 5640 5636 5633 5630 5627 5623 5619 5615 5610 5607 5604 5603 5601 5600 5598 5596 5596 5596 5597 5599 5602 5604 5608 5611 5616 5620 5626 5632 5637 5643 5648 5652 5657 5661 5665 5669 5673
5639 5635 5632 5630 5625 5621 5618 5615 5611 5607 5604 5600 5599 5597 5595 5592 5590 5589 5588 5589 5591 5593 5592 5598 5601 5606 5611 5616 5622 5628 5634 5639 5644 5649 5654 5658 5662 5666
5635 5631 5627 5624 5620 5615 5611 5608 5605 5602 5598 5596 5594 5593 5589 5587 5584 5583 5582 5581 5582 5582 5583 5588 5593 5597 5603 5608 5613 5619 5625 5630 5636 5641 5646 5651 5655 5659
5630 5626 5622 5619 5615 5608 5604 5601 5599 5596 5592 5590 5588 5586 5583 5580 5576 5573 5572 5572 5576 5577 5576 5579 5585 5588 5594 5600 5606 5611 5616 5621 5627 5632 5638 5643 5647 5651
5624 5621 5617 5613 5610 5603 5598 5595 5593 5591 5586 5584 5581 5579 5576 5573 5570 5568 5568 5568 5569 5571 5572 5571 5577 5578 5585 5592 5596 5601 5606 5611 5617 5623 5629 5634 5638 5642
5618 5616 5613 5608 5603 5597 5592 5590 5589 5585 5580 5576 5573 5571 5569 5567 5565 5563 5562 5562 5564 5566 5566 5563 5568 5570 5574 5581 5585 5590 5595 5601 5607 5613 5619 5625 5630 5635
5611 5610 5607 5601 5596 5591 5586 5584 5579 5573 5570 5567 5565 5564 5562 5561 5560 5559 5557 5557 5558 5560 5559 5558 5560 5563 5566 5571 5576 5580 5585 5590 5596 5603 5610 5616 5622 5628
5601 5601 5598 5593 5587 5582 5579 5575 5570 5566 5563 5561 5561 5561 5559 5557 5554 5552 5551 5550 5550 5551 5552 5552 5553 5556 5558 5563 5568 5572 5575 5582 5587 5594 5600 5607 5614 5620
5589 5589 5586 5581 5577 5574 5571 5567 5564 5562 5559 5558 5558 5556 5553 5549 5547 5546 5545 5544 5544 5547 5548 5547 5548 5549 5552 5556 5560 5565 5568 5573 5580 5585 5591 5598 5605 5612
5575 5574 5573 5571 5568 5566 5563 5561 5557 5554 5551 5551 5549 5548 5546 5544 5543 5540 5538 5537 5538 5543 5545 5544 5543 5544 5547 5550 5554 5559 5562 5566 5570 5575 5581 5590 5599 5606
5556 5561 5563 5563 5562 5560 5558 5555 5551 5549 5547 5546 5544 5542 5541 5540 5539 5536 5533 5533 5535 5537 5539 5539 5537 5537 5539 5544 5547 5552 5556 5560 5564 5569 5574 5582 5592 5600
5542 5549 5552 5554 5553 5552 5550 5549 5547 5545 5542 5540 5539 5537 5535 5534 5533 5532 5531 5530 5531 5533 5534 5534 5532 5533 5537 5544 5549 5546 5551 5555 5558 5564 5570 5577 5586 5594
5532 5537 5540 5542 5542 5542 5541 5540 5540 5537 5535 5534 5533 5532 5531 5530 5529 5529 5529 5529 5529 5529 5529 5529 5528 5530 5534 5539 5542 5545 5545 5549 5554 5559 5565 5571 5579 5586
5519 5522 5526 5528 5530 5530 5531 5531 5531 5530 5529 5528 5528 5527 5526 5526 5526 5527 5527 5525 5524 5525 5526 5529 5529 5527 5528 5529 5533 5540 5542 5544 5549 5554 5560 5565 5572 5579
5506 5509 5513 5516 5518 5519 5521 5522 5522 5523 5523 5523 5524 5523 5523 5523 5523 5524 5524 5524 5524 5524 5526 5527 5525 5522 5522 5525 5531 5536 5539 5540 5543 5547 5552 5560 5567 5575
5494 5499 5502 5506 5509 5511 5513 5515 5516 5518 5518 5519 5519 5519 5519 5519 5520 5520 5521 5521 5521 5522 5522 5522 5520 5519 5521 5523 5527 5531 5534 5536 5539 5543 5548 5552 5558 5565